Regional Weather Roundup
Issued by NWS

Home | Current Version | Previous Version | Text Only | Print | Product List | Glossary Off
Versions: 1 2 3 4 5 6 7 8 9 10 11 12 13 14 15 16 17 18 19 20 21 22 23 24 25 26 27 28 29 30 31 32 33 34 35 36 37 38 39 40 41 42 43 44 45 46 47 48 49 50

000
ASUS43 KMKX 100421
RWRWI

WISCONSIN REGIONAL WEATHER ROUNDUP
NATIONAL WEATHER SERVICE MILWAUKEE/SULLIVAN WI
1000 PM CST FRI DEC 09 2016

NOTE: "FAIR" INDICATES FEW OR NO CLOUDS BELOW 12,000 FEET WITH NO
SIGNIFICANT WEATHER AND/OR OBSTRUCTIONS TO VISIBILITY.

WIZ001-002-006>008-014>016-023>028-100500-
NORTHWEST WISCONSIN

CITY           SKY/WX    TMP DP  RH WIND       PRES   REMARKS
SUPERIOR ARPT  CLOUDY    10   2  68 NW9       30.48S WCI  -2
ASHLAND        LGT SNOW  10   5  80 NW5       30.46S WCI   2
HAYWARD        CLOUDY    10   2  69 VRB5      30.42S WCI   2
SIREN          CLOUDY    12   4  73 N6        30.46R WCI   2
CUMBERLAND     CLOUDY    12   5  73 W9        30.42S WCI   0
RICE LAKE      CLOUDY    13   4  67 W6        30.45S WCI   4
CHETEK         CLOUDY    13   5  69 NW3       30.45R
LADYSMITH      CLOUDY    14   6  68 W7        30.42S WCI   4
EAU CLAIRE     CLOUDY    15   9  76 W8        30.45S WCI   4
MENOMONIE      CLOUDY    16   8  70 W9        30.46S WCI   5
NEW RICHMOND   CLOUDY    13   4  68 W9        30.46S WCI   1
OSCEOLA        CLOUDY    14   4  66 NW7       30.50S WCI   4
$$

WIZ003>005-009-010-017-018-100500-
NORTH CENTRAL WISCONSIN

CITY           SKY/WX    TMP DP  RH WIND       PRES   REMARKS
MANITOWISH WTR CLOUDY     8   3  82 NW7       30.35S WCI  -4
ARBOR VITAE    CLOUDY    11   5  76 NW6       30.34S WCI   2
WOODRUFF       CLOUDY    11   5  76 NW6       30.34S WCI   2
RHINELANDER    CLOUDY    13   6  74 VRB5      30.34F WCI   5
EAGLE RIVER    FLURRIES  11   4  74 NW12      30.34R WCI  -3
LAND O LAKES   CLOUDY    10   4  75 NW6       30.36R WCI   1
PHILLIPS       CLOUDY    11   6  81 NW6       30.37R WCI   1
TOMAHAWK       LGT SNOW  13   8  81 NW6       30.37S WCI   4
MEDFORD        CLOUDY    13   9  83 SW5       30.37S WCI   5
MERRILL        CLOUDY    15   8  74 W7        30.38F WCI   5
$$

WIZ029-030-035-036-043>047-100500-
CENTRAL WISCONSIN

CITY           SKY/WX    TMP DP  RH WIND       PRES   REMARKS
WAUSAU         FLURRIES  15   8  73 W9        30.39S WCI   3
MOSINEE        FLURRIES  16  12  86 W7        30.40F WCI   6
MARSHFIELD     CLOUDY    15   7  70 W6        30.40S WCI   6
STEVENS POINT  FLURRIES  15   9  76 W9        30.42S WCI   3
WAUPACA        CLOUDY    20  11  68 CALM      30.44S
WAUTOMA        FLURRIES  18  12  77 W7        30.45S WCI   9
WISC RAPIDS    FLURRIES  17  11  77 W8        30.44S WCI   7
CAMP DOUGLAS   CLOUDY    16  10  78 W6        30.45S WCI   7
$$

WIZ011>013-019>022-031-037>040-048>050-100500-
NORTHEAST WISCONSIN

CITY           SKY/WX    TMP DP  RH WIND       PRES   REMARKS
ANTIGO         CLOUDY    14   9  81 W8        30.36S WCI   2
SHAWANO        CLOUDY    19  10  67 W7        30.43S WCI  10
OCONTO         CLOUDY    19   7  60 CALM      30.42F
STURGEON BAY   CLOUDY    19   6  57 NW10      30.41S WCI   7
GREEN BAY      PTCLDY    18  10  71 W8        30.43F WCI   8
MANITOWOC      MOCLDY    19  10  68 NW7       30.44S WCI  10
APPLETON       MOCLDY    18   9  68 W7        30.41F WCI   8
CLINTONVILLE   CLOUDY    18  10  73 W3        30.43S
OSHKOSH        CLOUDY    18   9  68 W6        30.44S WCI  10
$$

WIZ032>034-041-042-053>061-100500-
SOUTHWEST WISCONSIN

CITY           SKY/WX    TMP DP  RH WIND       PRES   REMARKS
LA CROSSE      CLOUDY    19  11  70 NW9       30.50S WCI   8
SPARTA         CLOUDY    17  12  79 W6        30.48S WCI   9
VIROQUA        CLOUDY    14  11  87 W3        30.44S
BOSCOBEL       CLOUDY    19  11  70 W6        30.51S WCI  11
PRAIRIE DU CHI CLOUDY    19  11  73 CALM      30.51S
PLATTEVILLE    CLOUDY    17  14  88 W7        30.49S WCI   8
$$

WIZ056-057-062-063-064-067-068-100500-
SOUTH CENTRAL WISCONSIN

CITY           SKY/WX    TMP DP  RH WIND       PRES   REMARKS
REEDSBURG      CLOUDY    17  11  76 W5        30.46S WCI  10
BARABOO/DELLS  CLOUDY    17  11  75 W6        30.45S WCI   9
LONE ROCK      CLOUDY    19  10  68 W9        30.50R WCI   8
MINERAL POINT  FLURRIES  19  14  79 W7        30.46S WCI  10
MADISON        CLOUDY    18  11  74 W5        30.46S WCI  11
MIDDLETON      PTCLDY    19  13  76 W5        30.46S WCI  13
WATERTOWN      CLOUDY    18  13  82 SW3       30.46S
MONROE         PTCLDY    18  14  86 W9        30.46S WCI   6
JANESVILLE     CLOUDY    19  14  79 W6        30.48S WCI  11
$$

WIZ051-052-058>065-066-070>072-100500-
SOUTHEAST WISCONSIN

CITY           SKY/WX    TMP DP  RH WIND       PRES   REMARKS
MILWAUKEE      PTCLDY    21  11  65 W7        30.47S WCI  12
WAUKESHA       CLEAR     18  12  79 W5        30.47S WCI  11
MILWAUKEE/TIMM MOCLDY    19  12  73 W7        30.47S WCI  10
RACINE         PTCLDY    19  11  70 W6        30.49S WCI  11
BURLINGTON     CLEAR     21  17  84 CALM      30.47S
KENOSHA        PTCLDY    15  10  80 W7        30.48S WCI   5
FOND DU LAC    CLOUDY    18   9  68 SW3       30.45S
SHEBOYGAN      CLOUDY    19  10  68 W3        30.44S
WEST BEND      CLOUDY    19  10  68 W3        30.44S
JUNEAU         CLOUDY    15  10  80 W6        30.46R WCI   6
$$

LSZ147-162-100500-
LAKE SUPERIOR

STATION/POSITION TIME  TEMP    WIND        PRES    WAVE
                       AIR SEA DIR/SP/G            HT/PER
                 (UTC) (F)     (DEG/KT/KT) (MB)    (FT/S)
DEVILS ISLAND    0400   11     260/ 10/ 16 1032.4F
PORT WING        0340   12     310/ 15/ 21 1031.8S
SAXON HARBOR     0330   12     230/  6/  9 1031.2S
$$

LMZ867-665-643>646-100500-
LAKE MICHIGAN

STATION/POSITION TIME  TEMP    WIND        PRES    WAVE
                       AIR SEA DIR/SP/G            HT/PER
                 (UTC) (F)     (DEG/KT/KT) (MB)    (FT/S)
CHAMBERS ISLAND  0340   19     280/ 11/ 18 1028.8S
NORTHPORT PIER   0340   21     270/  8/ 12 1028.8S
SISTER BAY       0350   21     310/ 17/ 21   N/A
ALGOMA LAKESHORE 0351          310/ 12/ 15   N/A
KEWAUNEE LAKESHO 0354   20     320/  4/  8 1029.5F
SHEBOYGAN LAKESH 0400   21     280/  5/  7 1032.0F
PORT WASHINGTON  0340   19     260/  6/  7 1032.5S
KENOSHA   LAKESH 0400   20     270/  7/  9 1032.2
$$

TC  - TEMPERATURE IN CELSIUS
VSB - VISIBILITY IN STATUTE MILES
WCI - WIND CHILL INDEX
HX  - HEAT INDEX





USA.gov is the U.S. government's official web portal to all federal, state and local government web resources and services.